User: anonymous   Login
Location: Creola (historical)
(38.1334°N, 100.5024°W)
Time: 16:08:24
(UTC+00:00)
Language:

CBERS 1 LM4 rocket - Orbit

View from above orbital plane
View from above orbital plane
View from above satellite
View from above satellite

Ground track
Ground track

The orbit data is extracted from the following two-line orbital elements,

1 25942U 99057C   22021.93702698  .00000156  00000-0  66722-4 0  9992
2 25942  98.8230  15.3784 0098056 286.9581 124.2161 14.36150762164721
Epoch (UTC): 21 January 2022 22:29:19
Eccentricity: 0.0098056
inclination: 98.8230°
perigee height: 701 km
apogee height: 841 km
right ascension of ascending node: 15.3784°
argument of perigee: 286.9581°
revolutions per day: 14.36150762
mean anomaly at epoch: 124.2161°
orbit number at epoch: 16472

The dashed part of the orbit path shows where the satellite is in the earth's shadow,  

DLR